Temp: 14.3°C   Baro: 995.4mb
  Wind: 9.0mph   Dir: SSW (210°)
  Rain: 0.4mm (0.0mm/hr)
  Solar: 90W/m2  Hum: 90%
 
Bath Spa Weather Station Historical Data
 
Daily Summary for October 24, 2020 Units:  Metric    English   Both
Daily Weekly Monthly Yearly Custom
  Current: High: Low: Average:
Temperature: 14.3 °C 15.1 °C 6.4 °C 11.7 °C
Dew Point: 13.2 °C 13.6 °C 5.1 °C 10.1 °C
Humidity: 89.8% 91% 82% 87%
Wind Speed: 12.6km/h 27.7km/h 0km/h 9.2km/h
Wind Gust: 22.5km/h 51.5km/h - -
WindSW - - SSW
Pressure: 995.5 hPa 1009 hPa 995.1 hPa -
Precipitation: 0.51 mm      
Historical Graphs
 
 
Tabular Data for October 24, 2020
Time Temperature Dew Point Pressure Wind Wind Speed Wind Gust Humidity Rainfall Rate (Hourly) solar
00:04 6.4 °C 5.1 °C 1009 hPa WSW 0.3 km/h 1.6 km/h 88% 0 mm 0 W/m2
00:09 6.5 °C 5.3 °C 1009 hPa WSW 0.6 km/h 3.2 km/h 88.8% 0 mm 0 W/m2
00:14 6.6 °C 5.2 °C 1009 hPa Calm   6.4 km/h 88% 0 mm 0 W/m2
00:19 6.8 °C 5.5 °C 1009 hPa Calm   6.4 km/h 88.6% 0 mm 0 W/m2
00:24 6.9 °C 5.7 °C 1009 hPa WSW 0.3 km/h 3.2 km/h 89% 0 mm 0 W/m2
00:29 7.1 °C 5.7 °C 1008.7 hPa WSW 0.6 km/h 3.2 km/h 88% 0 mm 0 W/m2
00:34 7.2 °C 5.8 °C 1008.7 hPa Calm   3.2 km/h 88% 0 mm 0 W/m2
00:39 7.2 °C 5.8 °C 1008.7 hPa Calm     88% 0 mm 0 W/m2
00:44 7.3 °C 5.9 °C 1008.7 hPa Calm   1.6 km/h 88% 0 mm 0 W/m2
00:49 7.4 °C 6.1 °C 1008.4 hPa WSW 2.7 km/h 6.4 km/h 88% 0 mm 0 W/m2
00:54 7.7 °C 6.3 °C 1008.4 hPa WSW 0.6 km/h 6.4 km/h 88% 0 mm 0 W/m2
00:59 7.9 °C 6.4 °C 1008.4 hPa WSW 1.3 km/h 6.4 km/h 87.2% 0 mm 0 W/m2
01:04 8.3 °C 6.7 °C 1008.4 hPa SW 5.6 km/h 12.9 km/h 86.4% 0 mm 0 W/m2
01:09 8.6 °C 6.8 °C 1008.4 hPa SSW 5.1 km/h 12.9 km/h 85.4% 0 mm 0 W/m2
01:14 8.8 °C 6.9 °C 1008.4 hPa SSW 5.1 km/h 12.9 km/h 85% 0 mm 0 W/m2
01:19 8.9 °C 7 °C 1008.4 hPa SSW 6.3 km/h 14.5 km/h 85% 0 mm 0 W/m2
01:24 8.9 °C 7 °C 1008.4 hPa SSW 3.2 km/h 12.9 km/h 85% 0 mm 0 W/m2
01:29 8.8 °C 6.9 °C 1008.4 hPa SSW 2.7 km/h 11.3 km/h 85% 0 mm 0 W/m2
01:34 8.8 °C 7 °C 1008.4 hPa SSW 0.3 km/h 8 km/h 85.6% 0 mm 0 W/m2
01:39 8.7 °C 7 °C 1008.4 hPa SW 3.2 km/h 12.9 km/h 86% 0 mm 0 W/m2
01:44 8.7 °C 7 °C 1008 hPa SSW 3.2 km/h 8 km/h 86% 0 mm 0 W/m2
01:49 8.6 °C 6.9 °C 1008.4 hPa SSW 5.1 km/h 8 km/h 86% 0 mm 0 W/m2
01:54 8.7 °C 6.9 °C 1008 hPa SW 2.7 km/h 11.3 km/h 86% 0 mm 0 W/m2
01:59 8.7 °C 7 °C 1008 hPa WSW 0.3 km/h 6.4 km/h 86% 0 mm 0 W/m2
02:04 8.7 °C 7 °C 1008 hPa SW 2.7 km/h 9.7 km/h 86% 0 mm 0 W/m2
02:09 8.8 °C 7.1 °C 1007.7 hPa SSW 3.7 km/h 9.7 km/h 86% 0 mm 0 W/m2
02:14 8.8 °C 7.2 °C 1007.7 hPa SSW 3.5 km/h 9.7 km/h 86% 0 mm 0 W/m2
02:19 8.9 °C 7.3 °C 1007.7 hPa SW 5.1 km/h 9.7 km/h 86.8% 0 mm 0 W/m2
02:24 9 °C 7.3 °C 1007.7 hPa SW 0.6 km/h 6.4 km/h 86.6% 0 mm 0 W/m2
02:29 8.9 °C 7.3 °C 1007.3 hPa Calm   1.6 km/h 87% 0 mm 0 W/m2
02:34 8.9 °C 7.3 °C 1007.3 hPa SW 0.3 km/h 4.8 km/h 87% 0 mm 0 W/m2
02:39 8.9 °C 7.3 °C 1007.3 hPa South 1 km/h 8 km/h 87% 0 mm 0 W/m2
02:44 8.9 °C 7.3 °C 1007.3 hPa SSE 1 km/h 4.8 km/h 87% 0 mm 0 W/m2
02:49 8.9 °C 7.3 °C 1007.3 hPa SSE 2.1 km/h 4.8 km/h 87% 0 mm 0 W/m2
02:54 8.9 °C 7.3 °C 1007 hPa SSE 0.8 km/h 4.8 km/h 87% 0 mm 0 W/m2
02:59 8.9 °C 7.3 °C 1006.7 hPa Calm   3.2 km/h 87% 0 mm 0 W/m2
03:04 8.8 °C 7.2 °C 1006.7 hPa Calm   1.6 km/h 87% 0 mm 0 W/m2
03:09 8.6 °C 7.1 °C 1006.7 hPa Calm   4.8 km/h 87% 0 mm 0 W/m2
03:14 8.4 °C 6.9 °C 1006.7 hPa South 0.3 km/h 3.2 km/h 87% 0 mm 0 W/m2
03:19 8.6 °C 7.1 °C 1006.7 hPa West 1.6 km/h 4.8 km/h 87.6% 0 mm 0 W/m2
03:24 8.7 °C 7.3 °C 1006.7 hPa WNW 0.3 km/h 4.8 km/h 88% 0 mm 0 W/m2
03:29 8.7 °C 7.3 °C 1006.7 hPa WSW 1.3 km/h 6.4 km/h 88% 0 mm 0 W/m2
03:34 8.8 °C 7.4 °C 1006.7 hPa Calm   4.8 km/h 88% 0 mm 0 W/m2
03:39 8.9 °C 7.5 °C 1006.3 hPa WSW 0.3 km/h 3.2 km/h 88% 0 mm 0 W/m2
03:44 8.9 °C 7.5 °C 1006.3 hPa SW 3.2 km/h 9.7 km/h 88% 0 mm 0 W/m2
03:49 9 °C 7.6 °C 1006.3 hPa South 2.7 km/h 6.4 km/h 88% 0 mm 0 W/m2
03:54 9 °C 7.6 °C 1006 hPa SW 2.6 km/h 9.7 km/h 88% 0 mm 0 W/m2
03:59 9.1 °C 7.7 °C 1006 hPa SW 3.5 km/h 9.7 km/h 88% 0 mm 0 W/m2
04:04 9.2 °C 7.7 °C 1006 hPa SW 9.5 km/h 16.1 km/h 87.4% 0 mm 0 W/m2
04:09 9.5 °C 7.8 °C 1006 hPa SW 11.7 km/h 19.3 km/h 86.4% 0 mm 0 W/m2
04:14 9.7 °C 7.8 °C 1006.3 hPa SSW 10.3 km/h 22.5 km/h 85.2% 0 mm 0 W/m2
04:19 9.8 °C 7.8 °C 1006 hPa SW 7.7 km/h 16.1 km/h 84.4% 0 mm 0 W/m2
04:24 9.8 °C 7.7 °C 1006 hPa SW 12.1 km/h 14.5 km/h 83.8% 0 mm 0 W/m2
04:29 9.9 °C 7.6 °C 1006 hPa SSW 10.5 km/h 20.9 km/h 83% 0 mm 0 W/m2
04:34 10.1 °C 7.7 °C 1006 hPa SW 11.3 km/h 17.7 km/h 83% 0 mm 0 W/m2
04:39 10.2 °C 7.8 °C 1005.6 hPa SW 12.7 km/h 17.7 km/h 82.8% 0 mm 0 W/m2
04:44 10.2 °C 7.9 °C 1005.6 hPa SW 8.9 km/h 19.3 km/h 82.5% 0 mm 0 W/m2
04:49 10.3 °C 7.8 °C 1005.6 hPa SSW 9 km/h 19.3 km/h 82% 0 mm 0 W/m2
04:54 10.3 °C 7.9 °C 1005.3 hPa SW 10.3 km/h 19.3 km/h 82% 0 mm 0 W/m2
04:59 10.3 °C 7.9 °C 1005 hPa SW 5 km/h 19.3 km/h 82% 0 mm 0 W/m2
05:04 10.2 °C 7.8 °C 1005 hPa SW 4.2 km/h 9.7 km/h 82% 0 mm 0 W/m2
05:09 10.3 °C 7.9 °C 1005 hPa SW 1 km/h 8 km/h 82.2% 0 mm 0 W/m2
05:14 10.3 °C 7.9 °C 1005 hPa Calm     83% 0 mm 0 W/m2
05:19 10.2 °C 7.9 °C 1005 hPa Calm   4.8 km/h 83% 0 mm 0 W/m2
05:24 10.3 °C 8.1 °C 1005 hPa SSE 0.6 km/h 8 km/h 83% 0 mm 0 W/m2
05:29 10.5 °C 8.2 °C 1005 hPa SSW 2.6 km/h 9.7 km/h 83% 0 mm 0 W/m2
05:34 10.6 °C 8.3 °C 1004.6 hPa South 1.4 km/h 8 km/h 83% 0 mm 0 W/m2
05:39 10.7 °C 8.4 °C 1004.6 hPa South 5.5 km/h 11.3 km/h 83% 0 mm 0 W/m2
05:44 10.8 °C 8.5 °C 1004.6 hPa South 2.6 km/h 11.3 km/h 83% 0 mm 0 W/m2
05:49 10.9 °C 8.6 °C 1004.3 hPa SSE 2.6 km/h 9.7 km/h 83% 0 mm 0 W/m2
05:54 10.9 °C 8.6 °C 1004.3 hPa ESE 4 km/h 8 km/h 83% 0 mm 0 W/m2
05:59 10.9 °C 8.6 °C 1004.3 hPa SE 4.7 km/h 11.3 km/h 83% 0 mm 0 W/m2
06:04 10.8 °C 8.6 °C 1003.9 hPa SE 5.5 km/h 14.5 km/h 83.2% 0 mm 0 W/m2
06:09 10.8 °C 8.7 °C 1003.9 hPa ESE 6.4 km/h 12.9 km/h 83.8% 0 mm 0 W/m2
06:14 10.8 °C 8.7 °C 1003.9 hPa SSE 3.5 km/h 11.3 km/h 84% 0 mm 0 W/m2
06:19 10.9 °C 8.8 °C 1003.9 hPa SE 4 km/h 8 km/h 84% 0 mm 0 W/m2
06:24 10.9 °C 8.8 °C 1003.6 hPa ESE 5.3 km/h 14.5 km/h 84% 0 mm 0 W/m2
06:29 11.2 °C 9.3 °C 1003.6 hPa SSE 3.2 km/h 9.7 km/h 85% 0 mm 0 W/m2
06:34 11.2 °C 9.3 °C 1003.6 hPa SSE 5.3 km/h 14.5 km/h 85% 0 mm 0 W/m2
06:39 11.4 °C 9.5 °C 1003.3 hPa SSE 3.2 km/h 14.5 km/h 85% 0 mm 0 W/m2
06:44 11.4 °C 9.5 °C 1003.3 hPa SSE 3.9 km/h 11.3 km/h 85% 0 mm 0 W/m2
06:49 11.6 °C 9.7 °C 1002.9 hPa South 6.8 km/h 22.5 km/h 85% 0 mm 0 W/m2
06:54 11.8 °C 9.9 °C 1002.9 hPa South 10.3 km/h 27.4 km/h 85.4% 0 mm 0 W/m2
06:59 11.9 °C 9.9 °C 1002.6 hPa SSW 6.6 km/h 12.9 km/h 85% 0 mm 0 W/m2
07:04 12.1 °C 10.3 °C 1002.9 hPa SSW 7.7 km/h 20.9 km/h 86% 0 mm 0 W/m2
07:09 12 °C 10.2 °C 1002.6 hPa SSW 8 km/h 17.7 km/h 86% 0 mm 0 W/m2
07:14 11.9 °C 10.3 °C 1002.6 hPa SSW 9.7 km/h 25.7 km/h 87% 0 mm 0 W/m2
07:19 11.8 °C 10.3 °C 1002.6 hPa West 8.2 km/h 22.5 km/h 87.2% 0 mm 0 W/m2
07:24 11.8 °C 10.4 °C 1002.6 hPa SSW 4.8 km/h 24.1 km/h 88% 0 mm 0 W/m2
07:29 11.9 °C 10.5 °C 1002.6 hPa SW 6.8 km/h 20.9 km/h 88% 0 mm 0 W/m2
07:34 12.1 °C 10.7 °C 1002.6 hPa SW 12.6 km/h 22.5 km/h 88% 0 mm 0 W/m2
07:39 12.1 °C 10.7 °C 1002.3 hPa SW 11.3 km/h 24.1 km/h 88% 0 mm 0 W/m2
07:44 12.2 °C 10.6 °C 1002.3 hPa SW 10 km/h 32.2 km/h 87.2% 0 mm 0 W/m2
07:49 12.3 °C 10.7 °C 1002.3 hPa SW 14.2 km/h 33.8 km/h 86.8% 0 mm 0 W/m2
07:54 12.4 °C 10.6 °C 1002.3 hPa SW 18.7 km/h 35.4 km/h 85.8% 0 mm 0 W/m2
07:59 12.6 °C 10.6 °C 1002.3 hPa WSW 20.1 km/h 37 km/h 85% 0 mm 0 W/m2
08:04 12.6 °C 10.6 °C 1002.3 hPa SW 16.7 km/h 33.8 km/h 85% 0 mm 0 W/m2
08:09 12.6 °C 10.6 °C 1002.3 hPa SSW 12.7 km/h 29 km/h 85% 0 mm 7 W/m2
08:13 12.6 °C 10.6 °C 1001.9 hPa SSW 12.1 km/h 20.9 km/h 85% 0 mm 11 W/m2
08:19 12.6 °C 10.6 °C 1001.9 hPa SSW 15.4 km/h 27.4 km/h 85% 0 mm 12 W/m2
08:24 12.7 °C 10.7 °C 1001.9 hPa SW 13.5 km/h 29 km/h 85% 0 mm 19 W/m2
08:29 12.7 °C 10.7 °C 1001.9 hPa SW 16.1 km/h 35.4 km/h 85% 0 mm 25 W/m2
08:34 12.8 °C 10.7 °C 1001.9 hPa SW 19.8 km/h 35.4 km/h 85% 0 mm 25 W/m2
08:39 12.8 °C 10.8 °C 1001.9 hPa SW 14.5 km/h 35.4 km/h 85% 0 mm 26 W/m2
08:44 12.8 °C 10.8 °C 1001.9 hPa SSW 18.3 km/h 37 km/h 85% 0 mm 25 W/m2
08:49 12.9 °C 10.9 °C 1001.9 hPa SSW 13.8 km/h 32.2 km/h 85% 0 mm 25 W/m2
08:54 12.9 °C 10.9 °C 1001.9 hPa SSW 14.2 km/h 32.2 km/h 85% 0 mm 21 W/m2
08:59 12.9 °C 10.9 °C 1001.9 hPa SSW 16.7 km/h 27.4 km/h 85% 0 mm 25 W/m2
09:04 12.9 °C 11 °C 1001.9 hPa SSW 12.9 km/h 29 km/h 85.6% 0 mm 32 W/m2
09:09 12.8 °C 11.1 °C 1001.6 hPa SSW 10.6 km/h 25.7 km/h 86.2% 0 mm 32 W/m2
09:14 12.7 °C 11.2 °C 1001.6 hPa SSW 13.2 km/h 22.5 km/h 87% 0 mm 32 W/m2
09:19 12.8 °C 11.2 °C 1001.6 hPa South 12.4 km/h 24.1 km/h 87% 0 mm 39 W/m2
09:24 12.8 °C 11.2 °C 1001.6 hPa SSW 9.5 km/h 24.1 km/h 87% 0 mm 33 W/m2
09:29 12.8 °C 11.4 °C 1001.6 hPa South 14.3 km/h 32.2 km/h 88% 0 mm 33 W/m2
09:34 12.9 °C 11.5 °C 1001.6 hPa SSW 11.4 km/h 33.8 km/h 88% 0 mm 42 W/m2
09:39 12.9 °C 11.5 °C 1001.2 hPa SSW 12.6 km/h 25.7 km/h 88% 0 mm 58 W/m2
09:44 12.9 °C 11.5 °C 1001.2 hPa SSW 16.7 km/h 35.4 km/h 88.2% 0 mm 70 W/m2
09:49 12.9 °C 11.6 °C 1001.2 hPa SW 18.3 km/h 41.8 km/h 89% 0 mm 62 W/m2
09:53 12.9 °C 11.7 °C 1001.2 hPa South 12.9 km/h 30.6 km/h 89% 0 mm 72 W/m2
09:59 12.9 °C 11.7 °C 1001.2 hPa SSW 19.3 km/h 30.6 km/h 89.6% 0 mm 77 W/m2
10:04 13.1 °C 11.9 °C 1001.2 hPa SSW 11.3 km/h 40.2 km/h 90% 0 mm 51 W/m2
10:09 13.1 °C 12 °C 1001.2 hPa SSW 10.6 km/h 25.7 km/h 90% 0 mm 42 W/m2
10:14 13.1 °C 12 °C 1001.2 hPa SSW 13.8 km/h 35.4 km/h 90% 0 mm 35 W/m2
10:19 13.1 °C 12 °C 1001.2 hPa SSW 9.8 km/h 25.7 km/h 90% 0 mm 49 W/m2
10:24 13.1 °C 12 °C 1000.9 hPa South 18.7 km/h 25.7 km/h 90% 0 mm 60 W/m2
10:29 13.1 °C 12.2 °C 1000.6 hPa SSW 12.6 km/h 25.7 km/h 91% 0 mm 74 W/m2
10:34 13.1 °C 12.2 °C 1000.9 hPa SSW 14.5 km/h 40.2 km/h 91% 0 mm 62 W/m2
10:39 13.2 °C 12.3 °C 1000.9 hPa SSW 11.4 km/h 22.5 km/h 91% 0 mm 51 W/m2
10:44 13.2 °C 12.3 °C 1000.6 hPa South 10 km/h 24.1 km/h 91% 0 mm 37 W/m2
10:49 13.2 °C 12.3 °C 1000.9 hPa SSW 15.8 km/h 24.1 km/h 91% 0 mm 37 W/m2
10:54 13.2 °C 12.3 °C 1000.6 hPa SSW 14.3 km/h 30.6 km/h 91% 0 mm 35 W/m2
10:59 13.3 °C 12.3 °C 1000.6 hPa SSW 11.6 km/h 24.1 km/h 91% 0 mm 44 W/m2
11:03 13.3 °C 12.4 °C 1000.6 hPa SSW 10.9 km/h 25.7 km/h 91% 0 mm 51 W/m2
11:09 13.3 °C 12.4 °C 1000.6 hPa SSW 10.3 km/h 27.4 km/h 91% 0 mm 30 W/m2
11:14 13.4 °C 12.5 °C 1000.6 hPa SW 12.9 km/h 24.1 km/h 91% 0 mm 37 W/m2
11:19 13.4 °C 12.5 °C 1000.2 hPa SSW 11.6 km/h 22.5 km/h 91% 0 mm 53 W/m2
11:24 13.5 °C 12.6 °C 999.9 hPa SSW 15.1 km/h 22.5 km/h 91% 0 mm 58 W/m2
11:29 13.6 °C 12.7 °C 999.9 hPa SSW 10.3 km/h 22.5 km/h 91% 0 mm 54 W/m2
11:34 13.6 °C 12.7 °C 999.9 hPa SSW 12.1 km/h 24.1 km/h 91% 0 mm 46 W/m2
11:39 13.7 °C 12.8 °C 999.9 hPa SSW 12.1 km/h 29 km/h 91% 0 mm 62 W/m2
11:44 13.7 °C 12.7 °C 999.9 hPa SW 9.7 km/h 24.1 km/h 90.2% 0 mm 62 W/m2
11:49 13.8 °C 12.8 °C 999.9 hPa SSW 19.3 km/h 35.4 km/h 90.6% 0 mm 47 W/m2
11:54 13.9 °C 12.8 °C 999.5 hPa SSW 11.3 km/h 25.7 km/h 90% 0 mm 70 W/m2
11:59 13.9 °C 12.8 °C 999.5 hPa SSW 11.1 km/h 30.6 km/h 90% 0 mm 69 W/m2
12:04 13.9 °C 12.8 °C 999.5 hPa SW 9 km/h 19.3 km/h 90% 0 mm 54 W/m2
12:09 13.9 °C 12.8 °C 999.5 hPa SSW 9.3 km/h 22.5 km/h 90% 0 mm 74 W/m2
12:14 13.9 °C 12.8 °C 999.2 hPa SSW 10.1 km/h 27.4 km/h 90.6% 0 mm 88 W/m2
12:19 14.1 °C 12.9 °C 999.2 hPa SSW 12.4 km/h 29 km/h 90.2% 0 mm 93 W/m2
12:24 14.2 °C 13.1 °C 999.2 hPa SSW 10.1 km/h 27.4 km/h 90% 0 mm 91 W/m2
12:29 14.3 °C 13.2 °C 999.2 hPa SSW 11.7 km/h 19.3 km/h 90% 0 mm 109 W/m2
12:34 14.3 °C 13.2 °C 998.9 hPa South 13.5 km/h 24.1 km/h 90% 0 mm 95 W/m2
12:39 14.4 °C 13.2 °C 998.9 hPa SSW 18 km/h 32.2 km/h 89.2% 0 mm 109 W/m2
12:44 14.5 °C 13.2 °C 998.9 hPa SW 15.6 km/h 33.8 km/h 89% 0 mm 135 W/m2
12:49 14.6 °C 13.3 °C 998.5 hPa SSW 13.8 km/h 24.1 km/h 89% 0 mm 142 W/m2
12:54 14.7 °C 13.3 °C 998.5 hPa South 13.2 km/h 30.6 km/h 88.4% 0 mm 118 W/m2
12:59 14.6 °C 13.2 °C 998.5 hPa SSW 11.9 km/h 30.6 km/h 88.6% 0 mm 105 W/m2
13:04 14.5 °C 13.2 °C 998.2 hPa South 12.9 km/h 25.7 km/h 89% 0 mm 74 W/m2
13:09 14.4 °C 13.2 °C 997.9 hPa SSW 9.5 km/h 29 km/h 89.4% 0 mm 77 W/m2
13:14 14.3 °C 13.2 °C 997.9 hPa SW 10.9 km/h 24.1 km/h 90% 0 mm 113 W/m2
13:19 14.4 °C 13.3 °C 997.9 hPa South 9 km/h 17.7 km/h 90% 0 mm 114 W/m2
13:24 14.4 °C 13.3 °C 997.9 hPa South 11.4 km/h 25.7 km/h 90% 0 mm 100 W/m2
13:29 14.6 °C 13.4 °C 997.5 hPa SW 12.7 km/h 32.2 km/h 90% 0 mm 83 W/m2
13:34 14.6 °C 13.5 °C 997.5 hPa SSW 12.2 km/h 32.2 km/h 90% 0 mm 109 W/m2
13:39 14.7 °C 13.6 °C 997.2 hPa SW 17.7 km/h 41.8 km/h 90% 0 mm 114 W/m2
13:44 14.7 °C 13.6 °C 997.2 hPa WSW 13.8 km/h 43.5 km/h 90% 0 mm 111 W/m2
13:49 14.6 °C 13.5 °C 997.2 hPa SW 14 km/h 32.2 km/h 90% 0 mm 139 W/m2
13:54 14.7 °C 13.6 °C 996.8 hPa SSW 8.4 km/h 33.8 km/h 89.8% 0 mm 162 W/m2
13:59 14.8 °C 13.5 °C 996.8 hPa SSW 11.9 km/h 27.4 km/h 89% 0 mm 206 W/m2
14:04 14.8 °C 13.6 °C 996.5 hPa SW 15.4 km/h 37 km/h 89% 0 mm 148 W/m2
14:09 14.9 °C 13.6 °C 996.5 hPa SSW 10.5 km/h 33.8 km/h 88.8% 0 mm 118 W/m2
14:14 14.9 °C 13.4 °C 996.5 hPa SW 23.8 km/h 45.1 km/h 88% 0 mm 155 W/m2
14:19 15.1 °C 13.6 °C 996.2 hPa South 19.5 km/h 33.8 km/h 88% 0 mm 107 W/m2
14:24 14.9 °C 13.3 °C 996.2 hPa SW 17.4 km/h 45.1 km/h 87.2% 0 mm 90 W/m2
14:29 14.8 °C 13.3 °C 996.2 hPa SSW 17.1 km/h 40.2 km/h 88% 0 mm 93 W/m2
14:34 14.7 °C 13.3 °C 995.8 hPa South 22.9 km/h 43.5 km/h 88.4% 0 mm 97 W/m2
14:39 14.7 °C 13.4 °C 995.8 hPa SW 13 km/h 38.6 km/h 89% 0 mm 120 W/m2
14:44 14.7 °C 13.3 °C 995.8 hPa SSW 15.4 km/h 40.2 km/h 89% 0 mm 72 W/m2
14:49 14.6 °C 13.2 °C 995.5 hPa South 14.8 km/h 40.2 km/h 89% 0 mm 74 W/m2
14:54 14.6 °C 13.3 °C 995.8 hPa South 17.7 km/h 41.8 km/h 89% 0 mm 54 W/m2
14:59 14.6 °C 13.3 °C 995.8 hPa SSW 27.7 km/h 51.5 km/h 89% 0 mm 70 W/m2
15:04 14.7 °C 13.3 °C 995.5 hPa SW 21.2 km/h 51.5 km/h 88.8% 0 mm 76 W/m2
15:09 14.7 °C 13.2 °C 995.5 hPa SSW 22.9 km/h 49.9 km/h 88% 0.25 mm 77 W/m2
15:14 14.6 °C 13.2 °C 995.5 hPa SW 22.2 km/h 40.2 km/h 88.5% 0.25 mm 88 W/m2
15:19 14.5 °C 13.2 °C 995.5 hPa SW 18.3 km/h 37 km/h 89% 0.51 mm 69 W/m2
15:24 14.4 °C 13.1 °C 995.1 hPa SSW 16.1 km/h 32.2 km/h 89% 0.51 mm 56 W/m2
15:29 14.3 °C 13.1 °C 995.1 hPa SSW 10.3 km/h 29 km/h 89.2% 0.51 mm 72 W/m2
15:34 14.3 °C 13.2 °C 995.5 hPa SW 12.6 km/h 22.5 km/h 89.8% 0.25 mm 60 W/m2
Bath Spa Weather
Compliments of Weather Underground - 2 mb